Chattanooga, TN

9:03 AM EDT on April 26, 2018 (GMT -0400)
Lovell

Weather History for KCHA - September, 2014

Change the Weather History Date:

Monday, September 22, 2014

  Actual Average Record
Temperature  
Mean Temperature 69 °F 70 °F  
Max Temperature 77 °F 81 °F 96 °F (1935)
Min Temperature 60 °F 59 °F 41 °F (1913)
Degree Days  
Heating Degree Days 0 1  
Month to date heating degree days 0 4  
Since 1 July heating degree days 0 4  
Cooling Degree Days 4 6  
Month to date cooling degree days 274 202  
Year to date cooling degree days 1775 1652  
Growing Degree Days 18 (Base 50)    
Moisture  
Dew Point 49 °F    
Average Humidity 51    
Maximum Humidity 69    
Minimum Humidity 33    
Precipitation  
Precipitation 0.00 in 0.14 in 3.04 in (1909)
Month to date precipitation 2.35 2.90  
Year to date precipitation 31.00 38.16  
Snow  
Snow 0.00 in 0.00 in - ()
Month to date snowfall 0.0 0.0  
Since 1 July snowfall 0.0 0.0  
Since 1 September snowfall 0.0 0.0  
Snow Depth 0.00 in    
Sea Level Pressure  
Sea Level Pressure 30.09 in    
Wind  
Wind Speed 10 mph (NNE)    
Max Wind Speed 20 mph    
Max Gust Speed 25 mph    
Visibility 10 miles    
Events      
T = Trace of Precipitation, MM = Missing Value Source: NWS Daily Summary

Daily Weather History Graph

Daily Weather History Graph

Search for Another Location

Airport or City:

Astronomy

Sep. 22, 2014 Rise Set
Actual Time 7:28 AM EDT 7:37 PM EDT
Civil Twilight 7:03 AM EDT 8:02 PM EDT
Nautical Twilight 6:34 AM EDT 8:32 PM EDT
Astronomical Twilight 6:04 AM EDT 9:02 PM EDT
Moon 5:59 AM EDT (9/22) 6:43 PM EDT (9/22)
Length of Visible Light 12h 59m
Length of Day
12h 08m
Waning Crescent, 2% of the Moon is Illuminated
Sep 22
Waning Crescent
Sep 24
New
Oct 1
First Quarter
Oct 8
Full
Oct 15
Last Quarter

Hourly Weather History & Observations

Time (EDT) Temp. Dew Point Humidity Pressure Visibility Wind Dir Wind Speed Gust Speed Precip Events Conditions
12:53 AM 72.0 °F 51.1 °F 48% 30.01 in 10.0 mi North 6.9 mph - N/A   Overcast
1:53 AM 70.0 °F 51.1 °F 51% 30.01 in 10.0 mi North 5.8 mph - N/A   Partly Cloudy
2:53 AM 66.9 °F 51.1 °F 57% 30.01 in 10.0 mi NNW 8.1 mph - N/A   Clear
3:53 AM 64.4 °F 51.8 °F 64% 30.04 in 10.0 mi North 6.9 mph - N/A   Clear
4:53 AM 63.0 °F 51.1 °F 65% 30.02 in 10.0 mi Calm Calm - N/A   Clear
5:53 AM 63.0 °F 51.1 °F 65% 30.04 in 10.0 mi Variable 3.5 mph - N/A   Partly Cloudy
6:53 AM 62.1 °F 50.0 °F 65% 30.06 in 10.0 mi North 4.6 mph - N/A   Clear
7:53 AM 61.0 °F 50.0 °F 67% 30.09 in 10.0 mi NE 6.9 mph - N/A   Partly Cloudy
8:53 AM 64.0 °F 51.1 °F 63% 30.10 in 10.0 mi NNE 8.1 mph - N/A   Partly Cloudy
9:53 AM 66.9 °F 50.0 °F 54% 30.11 in 10.0 mi NE 12.7 mph 20.7 mph N/A   Partly Cloudy
10:53 AM 68.0 °F 48.0 °F 49% 30.12 in 10.0 mi NNE 16.1 mph - N/A   Partly Cloudy
11:53 AM 71.1 °F 46.9 °F 42% 30.14 in 10.0 mi North 18.4 mph 24.2 mph N/A   Partly Cloudy
12:53 PM 72.0 °F 46.9 °F 41% 30.13 in 10.0 mi NNE 13.8 mph 24.2 mph N/A   Partly Cloudy
1:53 PM 73.9 °F 48.0 °F 40% 30.12 in 10.0 mi NE 12.7 mph 20.7 mph N/A   Scattered Clouds
2:53 PM 75.0 °F 48.9 °F 40% 30.11 in 10.0 mi NNE 11.5 mph 18.4 mph N/A   Partly Cloudy
3:53 PM 77.0 °F 48.0 °F 36% 30.09 in 10.0 mi North 10.4 mph 17.3 mph N/A   Partly Cloudy
4:53 PM 75.9 °F 48.0 °F 37% 30.09 in 10.0 mi NNE 12.7 mph - N/A   Partly Cloudy
5:53 PM 75.0 °F 44.1 °F 33% 30.09 in 10.0 mi NNE 16.1 mph - N/A   Clear
6:53 PM 73.9 °F 46.9 °F 38% 30.09 in 10.0 mi North 12.7 mph - N/A   Clear
7:53 PM 71.1 °F 46.9 °F 42% 30.11 in 10.0 mi North 9.2 mph - N/A   Clear
8:53 PM 68.0 °F 48.9 °F 50% 30.13 in 10.0 mi North 10.4 mph - N/A   Clear
9:53 PM 64.9 °F 48.9 °F 56% 30.15 in 10.0 mi North 9.2 mph - N/A   Clear
10:53 PM 64.0 °F 48.9 °F 58% 30.16 in 10.0 mi North 10.4 mph - N/A   Clear
11:53 PM 63.0 °F 48.9 °F 60% 30.17 in 10.0 mi North 11.5 mph - N/A   Clear